Location: Cabeza Gorda
(40.0667°N, 4.9667°W)
Time: 20:17:55
(UTC+00:00)

SMAP - Pass Details

Date: 15 January 2026
Orbit: 681 x 683 km, 98.1° (Epoch: 11 February)

Event Time Altitude Azimuth Distance (km) Brightness Sun altitude
Rises 06:44:57 0° 11° (N) 3,051 6.3 -10.5°
Reaches altitude 10° 06:47:12 10° 10° (N) 2,131 5.5 -10.1°
Maximum altitude 06:51:52 80° 285° (WNW) 697 3.0 -9.3°
Drops below altitude 10° 06:56:29 10° 198° (SSW) 2,115 5.6 -8.5°
Sets 06:58:43 0° 197° (SSW) 3,025 6.4 -8.1°
